HB9SZU-6 Weather Reports


time (UTC)temp
C
wind
direction
speed
KPH
gust
KPH
rain 1hr
cm
rain 24hr
cm
rain mn
cm
humidity
%
barometer
mb
20260506215753 12 0.0 0.0 0.05 0.00 0.48 81 1017.2
20260506214252 12 0.0 0.0 0.05 0.00 0.48 81 1017.3
20260506212752 12 0.0 0.0 0.05 0.00 0.48 81 1017.0
20260506211252 12 0.0 0.0 0.03 0.00 0.46 81 1017.4
20260506205752 12 0.0 0.0 0.00 0.00 0.43 80 1017.4
20260506204252 12 0.0 0.0 0.00 0.00 0.43 80 1016.5
20260506202752 12 0.0 0.0 0.00 0.00 0.43 80 1016.5
20260506201252 12 0.0 0.0 0.00 0.00 0.43 80 1016.5
20260506195752 12 0.0 0.0 0.00 0.00 0.43 80 1016.5
20260506194252 12 0.0 0.0 0.03 0.00 0.43 80 1016.3
20260506192752 12 0.0 0.0 0.00 0.00 0.41 79 1016.1
20260506191252 12 0.0 0.0 0.00 0.00 0.41 79 1015.7
20260506185753 12 0.0 0.0 0.00 0.00 0.41 79 1015.4
20260506184252 13 0.0 0.0 0.00 0.00 0.41 79 1015.0
20260506182753 13 0.0 0.0 0.00 0.00 0.41 79 1014.7
20260506181252 13 0.0 0.0 0.00 0.00 0.41 78 1014.3
20260506175753 13 0.0 0.0 0.00 0.00 0.41 78 1014.2
20260506174253 13 0.0 0.0 0.00 0.00 0.38 79 1014.2
20260506172752 13 0.0 0.0 0.00 0.00 0.38 79 1014.1
20260506171252 13 0.0 0.0 0.00 0.00 0.38 80 1014.0
20260506165752 13 0.0 0.0 0.00 0.00 0.38 80 1014.1
20260506164252 14 0.0 0.0 0.00 0.00 0.38 80 1014.1
20260506162752 14 0.0 0.0 0.00 0.00 0.38 81 1013.7
20260506161252 13 0.0 0.0 0.00 0.00 0.38 81 1013.9
20260506155752 13 0.0 0.0 0.00 0.00 0.38 81 1014.1
20260506154252 13 0.0 0.0 0.00 0.00 0.38 81 1014.0
20260506152752 13 0.0 0.0 0.00 0.00 0.38 81 1014.0
20260506151252 13 0.0 0.0 0.00 0.00 0.38 81 1014.1
20260506145752 12 0.0 0.0 0.05 0.00 0.38 81 1014.2
20260506144252 12 0.0 0.0 0.05 0.00 0.38 81 1014.7
20260506142752 12 0.0 0.0 0.08 0.00 0.38 81 1014.8
20260506141252 12 0.0 0.0 0.13 0.00 0.38 81 1015.1
20260506135751 11 0.0 0.0 0.15 0.00 0.36 80 1015.0
20260506134252 11 0.0 0.0 0.15 0.00 0.33 80 1015.3
20260506132752 11 0.0 0.0 0.18 0.00 0.33 80 1015.4
20260506131252 11 0.0 0.0 0.13 0.00 0.23 80 1015.6
20260506124810 13 0.0 0.0 0.03 0.00 0.15 80 1014.2
20260506123310 13 0.0 0.0 0.03 0.00 0.15 80 1014.2
20260506121811 14 0.0 0.0 0.00 0.00 0.13 78 1013.5
20260506120311 15 0.0 0.0 0.00 0.00 0.13 79 1012.6
20260506114810 15 0.0 0.0 0.00 0.00 0.13 80 1012.7
20260506113310 14 0.0 0.0 0.00 0.00 0.13 80 1012.8
20260506111810 14 0.0 0.0 0.00 0.00 0.13 80 1013.0
20260506110310 13 0.0 0.0 0.00 0.00 0.13 80 1013.4
20260506104810 13 0.0 0.0 0.00 0.00 0.13 80 1013.6
20260506103310 13 0.0 0.0 0.00 0.00 0.13 81 1013.5
20260506101810 13 0.0 0.0 0.00 0.00 0.13 81 1013.5
20260506100311 13 0.0 0.0 0.00 0.00 0.13 81 1013.0
20260506094811 13 0.0 0.0 0.00 0.00 0.13 81 1012.9
20260506093311 13 0.0 0.0 0.00 0.00 0.10 81 1013.1
20260506091811 13 0.0 0.0 0.00 0.00 0.10 81 1013.0
20260506090311 13 0.0 0.0 0.00 0.00 0.10 81 1012.8
20260506084810 13 0.0 0.0 0.00 0.00 0.10 81 1012.9
20260506083311 13 0.0 0.0 0.00 0.00 0.10 81 1013.3
20260506081811 12 0.0 0.0 0.00 0.00 0.10 81 1013.3
20260506080310 12 0.0 0.0 0.00 0.00 0.10 81 1013.4
20260506073310 12 0.0 0.0 0.00 0.00 0.10 81 1013.5
20260506071811 12 0.0 0.0 0.00 0.00 0.10 81 1013.6
20260506070311 12 0.0 0.0 0.00 0.00 0.10 81 1013.6
20260506061811 12 0.0 0.0 0.00 0.00 0.10 81 1014.3
20260506060311 12 0.0 0.0 0.00 0.00 0.10 81 1014.3
20260506050311 12 0.0 0.0 0.00 0.00 0.10 81 1014.7
20260506044812 12 0.0 0.0 0.00 0.00 0.10 81 1014.7
20260506043310 12 0.0 0.0 0.03 0.00 0.10 81 1014.6
20260506041811 12 0.0 0.0 0.08 0.00 0.10 81 1014.8
20260506040310 12 0.0 0.0 0.10 0.00 0.10 81 1014.8
20260506034811 12 0.0 0.0 0.10 0.00 0.10 81 1015.0
20260506033310 12 0.0 0.0 0.08 0.00 0.08 80 1015.1
20260506031811 12 0.0 0.0 0.03 0.00 0.03 80 1015.4
20260506030311 12 0.0 0.0 0.00 0.00 0.00 80 1015.3
20260506024811 12 0.0 0.0 0.00 0.00 0.00 80 1015.9
20260506023311 12 0.0 0.0 0.00 0.00 0.00 80 1016.0
20260506021810 12 0.0 0.0 0.00 0.00 0.00 80 1015.9
20260506020310 12 0.0 0.0 0.00 0.00 0.00 80 1016.1
20260506014810 12 0.0 0.0 0.00 0.00 0.00 80 1016.0
20260506013310 12 0.0 0.0 0.00 0.00 0.00 80 1016.1
20260506011810 12 0.0 0.0 0.00 0.00 0.00 80 1016.3
20260506010310 12 0.0 0.0 0.00 0.00 0.00 80 1016.5
20260506004810 12 0.0 0.0 0.00 0.00 0.00 80 1016.6
20260506003310 12 0.0 0.0 0.00 0.00 0.00 80 1016.7
20260506001810 12 0.0 0.0 0.00 0.00 0.00 80 1016.9
20260506000310 12 0.0 0.0 0.00 0.00 0.00 80 1017.0
20260505234810 12 0.0 0.0 0.00 0.00 0.00 80 1017.0
20260505233311 12 0.0 0.0 0.00 0.00 0.00 79 1017.5
20260505231810 12 0.0 0.0 0.00 0.00 0.00 79 1017.4
20260505230311 12 0.0 0.0 0.00 0.00 0.00 79 1017.4
20260505224811 12 0.0 0.0 0.00 0.00 0.00 79 1017.6
20260505223311 12 0.0 0.0 0.00 0.00 0.00 79 1017.6
20260505221811 12 0.0 0.0 0.00 0.00 0.00 79 1017.6